XE3JAR-13 Weather Reports


time (UTC)temp
C
wind
direction
speed
KPH
gust
KPH
rain 1hr
cm
rain 24hr
cm
rain mn
cm
humidity
%
barometer
mb
20260905152316 36 338 0.0 20.9 0.00 1.27 0.00 73 1014.6
20260905151823 36 90 0.0 0.0 0.00 1.27 0.00 73 1014.6
20260905150811 33 180 0.0 0.0 0.00 1.27 0.00 77 1014.6
20260905150308 33 248 0.0 0.0 0.00 1.27 0.00 77 1014.2
20260905145022 32 90 0.0 0.0 0.00 1.27 0.00 81 1014.2
20260905144519 32 338 0.0 0.0 0.00 1.27 0.00 84 1014.2
20260905143510 31 225 0.0 0.0 0.00 1.27 0.00 87 1014.2
20260905143006 31 203 0.0 0.0 0.00 1.27 0.00 87 1014.2
20260905142507 28 180 0.0 0.0 0.00 1.27 0.00 90 1014.2
20260905141311 27 68 0.0 0.0 0.00 1.27 0.00 94 1014.2
20260905140801 27 315 0.0 0.0 0.00 1.27 0.00 95 1014.2
20260905135030 27 225 0.0 0.0 0.00 1.27 0.00 99 1014.2
20260905132607 26 248 0.0 0.0 0.00 1.27 0.00 99 1013.9
20260905132138 26 203 0.0 0.0 0.00 1.27 0.00 99 1014.2
20260905131122 25 248 0.0 0.0 0.00 1.27 0.00 99 1014.2
20260905130426 25 203 0.0 0.0 0.00 1.27 0.00 99 1014.6
20260905124913 25 225 0.0 0.0 0.00 1.27 0.00 99 1014.6
20260905124407 23 203 0.0 0.0 0.00 1.27 0.00 99 1014.6
20260905123905 23 203 0.0 0.0 0.00 1.27 0.00 99 1014.6
20260905122352 23 225 0.0 0.0 0.00 1.27 0.00 99 1014.2
20260905121850 23 225 0.0 0.0 0.00 1.27 0.00 99 1014.2
20260905120548 23 225 0.0 0.0 0.00 1.27 0.00 99 1013.9
20260905115518 23 338 0.0 0.0 0.00 1.27 0.00 99 1013.9
20260905115216 23 293 0.0 0.0 0.00 1.27 0.00 99 1013.9
20260905114232 23 248 0.0 0.0 0.00 1.27 0.00 99 1013.9
20260905113325 23 225 0.0 0.0 0.00 1.27 0.00 99 1013.9
20260905112856 23 225 0.0 0.0 0.00 1.27 0.00 99 1013.9
20260905112121 23 248 0.0 0.0 0.00 1.27 0.00 99 1013.6
20260905111614 23 225 0.0 0.0 0.00 1.27 0.00 99 1013.6
20260905110606 23 203 0.0 6.4 0.00 1.27 0.00 99 1013.6
20260905110104 23 225 0.0 0.0 0.00 1.27 0.00 99 1013.6
20260905105057 23 225 0.0 0.0 0.00 1.27 0.00 99 1013.6
20260905104552 25 248 0.0 11.3 0.00 1.27 0.00 99 1013.6
20260905104052 23 203 11.3 17.7 0.00 1.27 0.00 99 1013.6
20260905103549 25 270 6.4 11.3 0.00 1.27 0.00 99 1013.6
20260905103043 25 180 11.3 11.3 0.00 1.27 0.00 99 1013.6
20260905102542 25 225 0.0 17.7 0.00 1.27 0.00 99 1013.6
20260905101818 25 248 17.7 17.7 0.00 1.27 0.00 99 1013.6
20260905074342 26 68 35.4 69.2 0.00 1.27 0.00 99 1012.9
20260905073842 26 68 35.4 69.2 0.00 1.27 0.00 99 1012.9
20260905073335 26 68 35.4 69.2 0.00 1.27 0.00 99 1012.9
20260905072832 26 68 35.4 69.2 0.00 1.27 0.00 99 1012.9
20260905072015 26 68 35.4 69.2 0.00 1.27 0.00 99 1012.9
20260905071200 26 68 35.4 69.2 0.00 1.27 0.00 99 1012.9
20260905065807 26 68 35.4 69.2 0.00 1.27 0.00 99 1012.9
20260905065447 26 68 35.4 69.2 0.00 1.27 0.00 99 1012.9
20260905062947 27 113 0.0 0.0 0.00 0.00 0.00 94 1011.8
20260905062409 27 225 0.0 0.0 0.00 0.00 0.00 94 1011.8
20260905061902 27 225 11.3 11.3 0.00 0.00 0.00 94 1011.8
20260905061504 27 225 0.0 0.0 0.00 0.00 0.00 93 1012.5
20260905060854 27 270 0.0 0.0 0.00 0.00 0.00 93 1012.5
20260905060348 27 225 0.0 0.0 0.00 0.00 0.00 93 1012.5
20260905053323 27 203 0.0 0.0 0.00 0.00 0.00 93 1012.9
20260905052818 27 270 0.0 0.0 0.00 0.00 0.00 93 1012.5
20260905052315 27 225 0.0 0.0 0.00 0.00 0.00 93 1012.5
20260905051813 27 248 0.0 0.0 0.00 0.00 0.00 92 1012.2
20260905051310 27 203 0.0 0.0 0.00 0.00 0.00 91 1012.2
20260905050837 27 180 0.0 0.0 0.00 0.00 0.00 93 1012.2
20260905045935 27 270 0.0 0.0 0.00 0.00 0.00 92 1012.2
20260905045436 27 180 0.0 0.0 0.00 0.00 0.00 92 1012.2
20260905044928 27 225 0.0 0.0 0.00 0.00 0.00 93 1012.2
20260905044427 27 203 0.0 0.0 0.00 0.00 0.00 93 1012.2
20260905042910 27 248 0.0 0.0 0.00 0.00 0.00 93 1012.2
20260905041023 27 270 0.0 0.0 0.00 0.00 0.00 93 1012.2
20260905040517 27 270 0.0 0.0 0.00 0.00 0.00 93 1012.2
20260905035506 27 293 0.0 0.0 0.00 0.00 0.00 93 1011.8
20260905035034 27 248 0.0 0.0 0.00 0.00 0.00 93 1012.2
20260905034343 27 225 6.4 6.4 0.00 0.00 0.00 93 1012.2
20260905033841 28 90 11.3 17.7 0.00 0.00 0.00 93 1012.2
20260905033336 28 248 11.3 11.3 0.00 0.00 0.00 93 1012.2
20260905032828 28 158 0.0 0.0 0.00 0.00 0.00 94 1012.2
20260905032321 28 113 0.0 0.0 0.00 0.00 0.00 95 1011.8
20260905031312 28 248 0.0 11.3 0.00 0.00 0.00 95 1011.8
20260905030806 28 23 0.0 0.0 0.00 0.00 0.00 95 1011.8
20260905030302 28 203 0.0 17.7 0.00 0.00 0.00 95 1011.5
20260905025801 30 23 11.3 11.3 0.00 0.00 0.00 94 1011.5
20260905024440 30 225 0.0 0.0 0.00 0.00 0.00 94 1010.8
20260905022404 30 158 0.0 0.0 0.00 0.00 0.00 93 1011.2
20260905015333 31 248 11.3 11.3 0.00 0.00 0.00 91 1010.5
20260905012550 31 0 17.7 20.9 0.00 0.00 0.00 90 1009.8
20260905012043 31 315 11.3 17.7 0.00 0.00 0.00 89 1009.8
20260905011540 31 338 11.3 20.9 0.00 0.00 0.00 89 1009.5
20260905011038 31 293 11.3 35.4 0.00 0.00 0.00 89 1009.5
20260905010532 31 315 11.3 20.9 0.00 0.00 0.00 88 1009.5
20260905010041 31 293 17.7 17.7 0.00 0.00 0.00 88 1009.5
20260905005522 31 68 17.7 17.7 0.00 0.00 0.00 88 1009.1
20260905005015 31 0 20.9 29.0 0.00 0.00 0.00 87 1009.1
20260905004007 32 315 17.7 17.7 0.00 0.00 0.00 86 1009.1
20260905003453 32 45 17.7 29.0 0.00 0.00 0.00 86 1009.1
20260905002444 32 315 17.7 29.0 0.00 0.00 0.00 85 1009.1
20260905001732 32 203 11.3 17.7 0.00 0.00 0.00 84 1009.1
20260904235330 32 248 17.7 35.4 0.00 0.00 0.00 82 1009.1
20260904234829 32 338 20.9 35.4 0.00 0.00 0.00 82 1008.8
20260904234312 32 45 11.3 35.4 0.00 0.00 0.00 82 1008.8
20260904233807 32 315 29.0 29.0 0.00 0.00 0.00 81 1008.8
20260904232706 32 45 20.9 40.2 0.00 0.00 0.00 80 1008.8
20260904232157 32 45 17.7 35.4 0.00 0.00 0.00 80 1008.8
20260904231700 32 23 17.7 29.0 0.00 0.00 0.00 79 1008.1
20260904231142 32 338 17.7 29.0 0.00 0.00 0.00 79 1008.1
20260904230132 33 68 17.7 29.0 0.00 0.00 0.00 78 1008.1
20260904225632 33 270 29.0 29.0 0.00 0.00 0.00 78 1008.5
20260904225134 33 0 20.9 20.9 0.00 0.00 0.00 78 1008.5
20260904224448 33 23 29.0 40.2 0.00 0.00 0.00 78 1008.5
20260904223339 33 270 11.3 17.7 0.00 0.00 0.00 77 1008.5
20260904223037 33 293 11.3 49.9 0.00 0.00 0.00 77 1008.1
20260904222535 33 0 40.2 40.2 0.00 0.00 0.00 77 1008.1
20260904222040 33 90 20.9 57.9 0.00 0.00 0.00 77 1008.1
20260904221532 35 315 29.0 46.7 0.00 0.00 0.00 76 1008.1
20260904220013 36 68 20.9 20.9 0.00 0.00 0.00 73 1008.1
20260904215005 37 23 20.9 40.2 0.00 0.00 0.00 70 1007.8
20260904214123 37 45 20.9 40.2 0.00 0.00 0.00 65 1008.1
20260904213619 37 68 11.3 17.7 0.00 0.00 0.00 65 1008.1
20260904212239 37 23 20.9 40.2 0.00 0.00 0.00 65 1008.1
20260904211208 38 113 35.4 57.9 0.00 0.00 0.00 62 1008.1
20260904210711 41 45 35.4 40.2 0.00 0.00 0.00 59 1008.1
20260904205613 41 113 20.9 40.2 0.00 0.00 0.00 59 1008.5
20260904204525 42 113 20.9 40.2 0.00 0.00 0.00 58 1008.5
20260904201439 38 338 29.0 29.0 0.00 0.00 0.00 60 1008.8
20260904200936 40 68 46.7 46.7 0.00 0.00 0.00 59 1008.8
20260904200432 40 68 35.4 40.2 0.00 0.00 0.00 58 1008.8
20260904195926 40 158 29.0 40.2 0.00 0.00 0.00 58 1009.1
20260904193951 43 23 6.4 17.7 0.00 0.00 0.00 53 1009.8
20260904192941 42 135 17.7 20.9 0.00 0.00 0.00 54 1009.8
20260904192441 42 45 29.0 40.2 0.00 0.00 0.00 55 1009.8
20260904191434 42 23 35.4 35.4 0.00 0.00 0.00 56 1009.8
20260904185905 42 45 6.4 29.0 0.00 0.00 0.00 57 1010.2
20260904184857 42 90 29.0 35.4 0.00 0.00 0.00 56 1010.5
20260904184356 42 45 29.0 29.0 0.00 0.00 0.00 57 1010.5
20260904183409 42 113 20.9 29.0 0.00 0.00 0.00 56 1010.8
20260904182446 42 90 20.9 35.4 0.00 0.00 0.00 57 1010.8
20260904181829 42 90 11.3 11.3 0.00 0.00 0.00 58 1010.8
20260904181322 41 45 20.9 40.2 0.00 0.00 0.00 59 1010.8
20260904180822 42 0 17.7 29.0 0.00 0.00 0.00 59 1010.8
20260904180314 41 45 11.3 29.0 0.00 0.00 0.00 60 1011.2
20260904175809 42 90 11.3 17.7 0.00 0.00 0.00 58 1011.2
20260904173616 41 315 17.7 29.0 0.00 0.00 0.00 61 1011.5
20260904172119 41 113 29.0 29.0 0.00 0.00 0.00 60 1011.5
20260904171144 40 293 17.7 29.0 0.00 0.00 0.00 62 1011.5
20260904170306 40 315 29.0 29.0 0.00 0.00 0.00 62 1011.8
20260904165819 38 68 29.0 40.2 0.00 0.00 0.00 63 1011.8
20260904164756 38 90 17.7 20.9 0.00 0.00 0.00 64 1011.8
20260904163857 38 45 17.7 35.4 0.00 0.00 0.00 65 1011.8
20260904163347 38 0 11.3 20.9 0.00 0.00 0.00 65 1011.8
20260904162844 38 248 11.3 20.9 0.00 0.00 0.00 65 1011.8
20260904162420 38 293 11.3 17.7 0.00 0.00 0.00 65 1011.8
20260904160813 38 45 17.7 29.0 0.00 0.00 0.00 64 1012.2
20260904160301 38 45 0.0 20.9 0.00 0.00 0.00 65 1011.8
20260904154756 37 180 11.3 20.9 0.00 0.00 0.00 68 1011.8
20260904154249 37 0 17.7 29.0 0.00 0.00 0.00 68 1011.8
20260904153743 37 180 11.3 11.3 0.00 0.00 0.00 68 1011.8
20260904153250 37 225 6.4 17.7 0.00 0.00 0.00 68 1011.8